This is the latest recevied weather packets stored in our database for station/object N9BID. If no packets are shown the sender has not sent any weather packets the latest 10 day(s).
| Time | Temp. | Humidity | Pressure | Rain* | Wind** | Luminosity | Snow |
|---|---|---|---|---|---|---|---|
| 1777766755 | 13.33° C | 47% | 1004.5 hPa | 0 mm | - | 47 W/m² | - |
| 1777766452 | 13.33° C | 47% | 1004.4 hPa | 0 mm | - | 62 W/m² | - |
| 1777766148 | 13.89° C | 45% | 1004.1 hPa | 0 mm | - | 71 W/m² | - |
| 1777765847 | 13.89° C | 46% | 1004.5 hPa | 0 mm | - | 80 W/m² | - |
| 1777765542 | 13.89° C | 45% | 1004.8 hPa | 0 mm | - | 129 W/m² | - |
| 1777765241 | 13.89° C | 43% | 1004.5 hPa | 0 mm | - | 102 W/m² | - |
| 1777764940 | 14.44° C | 44% | 1004.6 hPa | 0 mm | - | 108 W/m² | - |
| 1777764638 | 13.89° C | 47% | 1004.5 hPa | 0 mm | - | 119 W/m² | - |
| 1777764334 | 13.89° C | 48% | 1004.5 hPa | 0 mm | - | 131 W/m² | - |
| 1777764031 | 13.89° C | 45% | 1004.7 hPa | 0 mm | - | 86 W/m² | - |
| 1777763728 | 13.89° C | 44% | 1004.5 hPa | 0 mm | - | 105 W/m² | - |
| 1777763426 | 13.89° C | 44% | 1004.7 hPa | 0 mm | - | 146 W/m² | - |
| 1777763124 | 13.89° C | 42% | 1004.9 hPa | 0 mm | - | 177 W/m² | - |
| 1777762823 | 14.44° C | 42% | 1004.6 hPa | 0 mm | - | 87 W/m² | - |
| 1777762522 | 13.89° C | 43% | 1004.7 hPa | 0 mm | - | 154 W/m² | - |
| 1777762220 | 13.89° C | 43% | 1004.7 hPa | 0 mm | - | 126 W/m² | - |
| 1777761916 | 14.44° C | 44% | 1004.6 hPa | 0 mm | - | 86 W/m² | - |
| 1777761613 | 15° C | 44% | 1004.6 hPa | 0 mm | - | 219 W/m² | - |
| 1777761311 | 15° C | 39% | 1004.7 hPa | 0 mm | - | 275 W/m² | - |
| 1777761009 | 15° C | 38% | 1005.2 hPa | 0 mm | - | 299 W/m² | - |
| 1777760706 | 15° C | 41% | 1004.8 hPa | 0 mm | - | 278 W/m² | - |
| 1777760402 | 15° C | 39% | 1005 hPa | 0 mm | - | 290 W/m² | - |
| 1777760098 | 15° C | 40% | 1005.2 hPa | 0 mm | - | 349 W/m² | - |
| 1777759795 | 15° C | 40% | 1004.9 hPa | 0 mm | - | 373 W/m² | - |
| 1777759491 | 15° C | 40% | 1005 hPa | 0 mm | - | 402 W/m² | - |
* Rain latest hour (hover to see other rain measurements)
** Current wind speed in m/s (hover to see current wind gust speed)